| time (UTC) | temp F | wind direction | speed MPH | gust MPH | rain 1hr in | rain 24hr in | rain mn in | humidity % | barometer mb |
| 20260504082004 | 47 | 12 | 0.0 | 1.0 | 0.00 | 0.00 | 0.00 | 71 | 1005.4 |
| 20260504081515 | 47 | 12 | 0.0 | 2.0 | 0.00 | 0.00 | 0.00 | 70 | 1005.4 |
| 20260504081004 | 47 | 12 | 0.0 | 2.0 | 0.00 | 0.00 | 0.00 | 70 | 1005.4 |
| 20260504080504 | 47 | 12 | 0.0 | 2.0 | 0.00 | 0.00 | 0.00 | 70 | 1005.6 |
| 20260504050504 | 54 | 247 | 0.0 | 2.0 | 0.00 | 0.00 | 0.00 | 54 | 1007.4 |
| 20260504050017 | 54 | 247 | 0.0 | 2.0 | 0.00 | 0.00 | 0.00 | 53 | 1007.5 |
| 20260504045505 | 55 | 247 | 0.0 | 2.0 | 0.00 | 0.00 | 0.00 | 52 | 1007.5 |
| 20260504045003 | 55 | 252 | 0.0 | 2.0 | 0.00 | 0.00 | 0.00 | 52 | 1007.4 |
| 20260504044520 | 55 | 252 | 0.0 | 2.0 | 0.00 | 0.00 | 0.00 | 51 | 1007.4 |
| 20260504044007 | 56 | 252 | 0.0 | 2.0 | 0.00 | 0.00 | 0.00 | 50 | 1007.5 |
| 20260504043504 | 56 | 252 | 0.0 | 2.0 | 0.00 | 0.00 | 0.00 | 48 | 1007.6 |
| 20260504043027 | 56 | 252 | 0.0 | 2.0 | 0.00 | 0.00 | 0.00 | 49 | 1007.7 |
| 20260504042508 | 57 | 252 | 0.0 | 2.0 | 0.00 | 0.00 | 0.00 | 48 | 1007.6 |
| 20260504042007 | 57 | 250 | 0.0 | 2.0 | 0.00 | 0.00 | 0.00 | 47 | 1007.8 |
| 20260504041502 | 58 | 249 | 0.0 | 2.0 | 0.00 | 0.00 | 0.00 | 45 | 1007.9 |
| 20260504041005 | 58 | 269 | 0.0 | 2.0 | 0.00 | 0.00 | 0.00 | 46 | 1007.8 |
| 20260504040508 | 58 | 269 | 0.0 | 2.0 | 0.00 | 0.00 | 0.00 | 43 | 1007.8 |
| 20260504040012 | 58 | 269 | 0.0 | 2.0 | 0.00 | 0.00 | 0.00 | 43 | 1007.8 |
| 20260504035505 | 58 | 269 | 0.0 | 2.0 | 0.00 | 0.00 | 0.00 | 43 | 1007.8 |
| 20260504035005 | 58 | 269 | 0.0 | 2.0 | 0.00 | 0.00 | 0.00 | 44 | 1007.8 |
| 20260504034513 | 58 | 268 | 0.0 | 2.0 | 0.00 | 0.00 | 0.00 | 43 | 1007.9 |
| 20260504034009 | 59 | 261 | 0.0 | 2.0 | 0.00 | 0.00 | 0.00 | 44 | 1007.9 |
| 20260504033504 | 59 | 268 | 0.0 | 2.0 | 0.00 | 0.00 | 0.00 | 43 | 1008.0 |
| 20260504033016 | 59 | 268 | 0.0 | 2.0 | 0.00 | 0.00 | 0.00 | 42 | 1008.1 |
| 20260504032509 | 60 | 265 | 0.0 | 2.0 | 0.00 | 0.00 | 0.00 | 42 | 1008.1 |
| 20260504032008 | 60 | 265 | 1.0 | 2.0 | 0.00 | 0.00 | 0.00 | 40 | 1008.1 |
| 20260504031516 | 60 | 261 | 0.0 | 2.0 | 0.00 | 0.00 | 0.00 | 40 | 1008.1 |
| 20260504031009 | 61 | 261 | 0.0 | 2.0 | 0.00 | 0.00 | 0.00 | 40 | 1008.0 |
| 20260504030504 | 61 | 261 | 0.0 | 2.0 | 0.00 | 0.00 | 0.00 | 39 | 1007.9 |
| 20260504030011 | 61 | 261 | 0.0 | 2.0 | 0.00 | 0.00 | 0.00 | 39 | 1008.0 |
| 20260504025504 | 62 | 269 | 0.0 | 2.0 | 0.00 | 0.00 | 0.00 | 38 | 1007.9 |
| 20260504025006 | 62 | 269 | 0.0 | 2.0 | 0.00 | 0.00 | 0.00 | 37 | 1007.8 |
| 20260504024512 | 62 | 249 | 0.0 | 2.0 | 0.00 | 0.00 | 0.00 | 37 | 1007.8 |
| 20260504024007 | 62 | 248 | 0.0 | 2.0 | 0.00 | 0.00 | 0.00 | 37 | 1007.8 |
| 20260504023508 | 62 | 261 | 0.0 | 2.0 | 0.00 | 0.00 | 0.00 | 37 | 1007.7 |
| 20260504023016 | 63 | 261 | 0.0 | 2.0 | 0.00 | 0.00 | 0.00 | 37 | 1007.6 |
| 20260504022506 | 63 | 244 | 0.0 | 2.0 | 0.00 | 0.00 | 0.00 | 35 | 1007.6 |
| 20260504022004 | 63 | 244 | 1.0 | 2.0 | 0.00 | 0.00 | 0.00 | 37 | 1007.6 |
| 20260504021517 | 64 | 294 | 0.0 | 2.0 | 0.00 | 0.00 | 0.00 | 36 | 1007.4 |
| 20260504021006 | 65 | 294 | 0.0 | 2.0 | 0.00 | 0.00 | 0.00 | 34 | 1007.3 |
| 20260504020508 | 65 | 294 | 0.0 | 2.0 | 0.00 | 0.00 | 0.00 | 34 | 1007.4 |
| 20260504020016 | 66 | 259 | 0.0 | 2.0 | 0.00 | 0.00 | 0.00 | 33 | 1007.3 |
| 20260504015504 | 66 | 259 | 0.0 | 2.0 | 0.00 | 0.00 | 0.00 | 33 | 1007.4 |
| 20260504015009 | 66 | 334 | 0.0 | 2.0 | 0.00 | 0.00 | 0.00 | 31 | 1007.4 |
| 20260504014517 | 67 | 331 | 0.0 | 2.0 | 0.00 | 0.00 | 0.00 | 31 | 1007.3 |
| 20260504014005 | 67 | 326 | 0.0 | 2.0 | 0.00 | 0.00 | 0.00 | 31 | 1007.3 |
| 20260504013503 | 68 | 275 | 0.0 | 2.0 | 0.00 | 0.00 | 0.00 | 31 | 1007.3 |
| 20260504013030 | 68 | 263 | 0.0 | 2.0 | 0.00 | 0.00 | 0.00 | 30 | 1007.3 |
| 20260504012508 | 68 | 266 | 0.0 | 2.0 | 0.00 | 0.00 | 0.00 | 30 | 1007.2 |
| 20260504012009 | 69 | 274 | 0.0 | 4.0 | 0.00 | 0.00 | 0.00 | 29 | 1007.2 |
| 20260504011520 | 69 | 281 | 0.0 | 5.0 | 0.00 | 0.00 | 0.00 | 29 | 1007.1 |
| 20260504011008 | 69 | 222 | 1.0 | 5.0 | 0.00 | 0.00 | 0.00 | 29 | 1007.1 |
| 20260504010507 | 70 | 281 | 3.0 | 5.0 | 0.00 | 0.00 | 0.00 | 29 | 1007.1 |
| 20260504010021 | 70 | 265 | 1.0 | 4.0 | 0.00 | 0.00 | 0.00 | 29 | 1007.0 |
| 20260504005510 | 71 | 190 | 1.0 | 4.0 | 0.00 | 0.00 | 0.00 | 29 | 1007.0 |
| 20260504005011 | 71 | 263 | 1.0 | 6.0 | 0.00 | 0.00 | 0.00 | 28 | 1007.0 |
| 20260504004520 | 72 | 291 | 2.0 | 6.0 | 0.00 | 0.00 | 0.00 | 28 | 1006.9 |
| 20260504004004 | 72 | 281 | 0.0 | 2.0 | 0.00 | 0.00 | 0.00 | 28 | 1006.9 |
| 20260504003506 | 72 | 275 | 1.0 | 8.0 | 0.00 | 0.00 | 0.00 | 27 | 1006.9 |
| 20260504003012 | 73 | 249 | 2.0 | 7.0 | 0.00 | 0.00 | 0.00 | 27 | 1006.9 |
| 20260504002510 | 73 | 292 | 2.0 | 4.0 | 0.00 | 0.00 | 0.00 | 26 | 1006.9 |
| 20260504002006 | 73 | 302 | 3.0 | 7.0 | 0.00 | 0.00 | 0.00 | 25 | 1006.9 |
| 20260504001517 | 74 | 270 | 3.0 | 10.0 | 0.00 | 0.00 | 0.00 | 25 | 1006.9 |
| 20260504001007 | 74 | 263 | 3.0 | 11.0 | 0.00 | 0.00 | 0.00 | 24 | 1006.8 |
| 20260504000510 | 74 | 317 | 3.0 | 11.0 | 0.00 | 0.00 | 0.00 | 24 | 1006.8 |
| 20260504000020 | 74 | 289 | 4.0 | 11.0 | 0.00 | 0.00 | 0.00 | 24 | 1006.8 |
| 20260503235507 | 75 | 317 | 5.0 | 11.0 | 0.00 | 0.00 | 0.00 | 23 | 1006.7 |
| 20260503235007 | 75 | 296 | 4.0 | 11.0 | 0.00 | 0.00 | 0.00 | 23 | 1006.7 |
| 20260503234523 | 75 | 259 | 2.0 | 12.0 | 0.00 | 0.00 | 0.00 | 25 | 1006.7 |
| 20260503234009 | 75 | 323 | 4.0 | 12.0 | 0.00 | 0.00 | 0.00 | 25 | 1006.7 |
| 20260503233508 | 75 | 307 | 4.0 | 13.0 | 0.00 | 0.00 | 0.00 | 25 | 1006.7 |
| 20260503233022 | 75 | 260 | 2.0 | 13.0 | 0.00 | 0.00 | 0.00 | 25 | 1006.7 |
| 20260503232504 | 76 | 271 | 5.0 | 13.0 | 0.00 | 0.00 | 0.00 | 24 | 1006.6 |
| 20260503232008 | 75 | 265 | 5.0 | 13.0 | 0.00 | 0.00 | 0.00 | 24 | 1006.7 |
| 20260503231518 | 75 | 303 | 5.0 | 14.0 | 0.00 | 0.00 | 0.00 | 24 | 1006.7 |
| 20260503231007 | 75 | 229 | 4.0 | 14.0 | 0.00 | 0.00 | 0.00 | 25 | 1006.7 |
| 20260503230511 | 76 | 283 | 7.0 | 14.0 | 0.00 | 0.00 | 0.00 | 24 | 1006.7 |
| 20260503230019 | 76 | 250 | 3.0 | 15.0 | 0.00 | 0.00 | 0.00 | 24 | 1006.7 |
| 20260503225509 | 76 | 330 | 2.0 | 15.0 | 0.00 | 0.00 | 0.00 | 25 | 1006.7 |
| 20260503225010 | 75 | 282 | 7.0 | 16.0 | 0.00 | 0.00 | 0.00 | 25 | 1006.8 |
| 20260503224524 | 76 | 259 | 8.0 | 17.0 | 0.00 | 0.00 | 0.00 | 24 | 1006.8 |
| 20260503224008 | 76 | 269 | 5.0 | 17.0 | 0.00 | 0.00 | 0.00 | 25 | 1006.7 |
| 20260503223507 | 76 | 360 | 4.0 | 14.0 | 0.00 | 0.00 | 0.00 | 25 | 1006.6 |
| 20260503223022 | 76 | 275 | 4.0 | 14.0 | 0.00 | 0.00 | 0.00 | 25 | 1006.6 |
| 20260503222507 | 76 | 255 | 3.0 | 12.0 | 0.00 | 0.00 | 0.00 | 25 | 1006.6 |
| 20260503222012 | 76 | 277 | 5.0 | 14.0 | 0.00 | 0.00 | 0.00 | 24 | 1006.6 |
| 20260503221515 | 76 | 304 | 5.0 | 15.0 | 0.00 | 0.00 | 0.00 | 24 | 1006.5 |
| 20260503221011 | 75 | 321 | 9.0 | 15.0 | 0.00 | 0.00 | 0.00 | 24 | 1006.6 |
| 20260503220511 | 75 | 270 | 5.0 | 11.0 | 0.00 | 0.00 | 0.00 | 32 | 1006.5 |
| 20260503220020 | 75 | 246 | 5.0 | 12.0 | 0.00 | 0.00 | 0.00 | 36 | 1006.5 |
| 20260503215508 | 75 | 244 | 5.0 | 15.0 | 0.00 | 0.00 | 0.00 | 36 | 1006.6 |
| 20260503215010 | 74 | 271 | 4.0 | 15.0 | 0.00 | 0.00 | 0.00 | 38 | 1006.6 |
| 20260503214524 | 75 | 261 | 5.0 | 15.0 | 0.00 | 0.00 | 0.00 | 36 | 1006.5 |
| 20260503214009 | 74 | 259 | 5.0 | 15.0 | 0.00 | 0.00 | 0.00 | 38 | 1006.6 |
| 20260503213511 | 74 | 239 | 8.0 | 15.0 | 0.00 | 0.00 | 0.00 | 37 | 1006.5 |
| 20260503213026 | 74 | 255 | 6.0 | 15.0 | 0.00 | 0.00 | 0.00 | 37 | 1006.7 |
| 20260503212509 | 74 | 175 | 3.0 | 14.0 | 0.00 | 0.00 | 0.00 | 38 | 1006.7 |
| 20260503212010 | 73 | 291 | 6.0 | 14.0 | 0.00 | 0.00 | 0.00 | 38 | 1006.7 |
| 20260503211526 | 73 | 211 | 5.0 | 13.0 | 0.00 | 0.00 | 0.00 | 40 | 1006.8 |
| 20260503211010 | 73 | 186 | 6.0 | 13.0 | 0.00 | 0.00 | 0.00 | 39 | 1006.9 |
| 20260503210510 | 73 | 263 | 7.0 | 13.0 | 0.00 | 0.00 | 0.00 | 39 | 1007.0 |
| 20260503210018 | 73 | 283 | 5.0 | 12.0 | 0.00 | 0.00 | 0.00 | 40 | 1007.1 |
| 20260503205506 | 72 | 207 | 4.0 | 18.0 | 0.00 | 0.00 | 0.00 | 41 | 1007.1 |
| 20260503205011 | 72 | 186 | 7.0 | 21.0 | 0.00 | 0.00 | 0.00 | 40 | 1007.3 |
| 20260503204522 | 72 | 263 | 6.0 | 21.0 | 0.00 | 0.00 | 0.00 | 39 | 1007.3 |
| 20260503204009 | 73 | 254 | 5.0 | 15.0 | 0.00 | 0.00 | 0.00 | 39 | 1007.3 |
| 20260503203507 | 74 | 251 | 5.0 | 15.0 | 0.00 | 0.00 | 0.00 | 37 | 1007.3 |
| 20260503203008 | 75 | 182 | 3.0 | 13.0 | 0.00 | 0.00 | 0.00 | 30 | 1007.5 |
| 20260503202504 | 75 | 298 | 5.0 | 14.0 | 0.00 | 0.00 | 0.00 | 28 | 1007.1 |
| 20260503202007 | 75 | 325 | 3.0 | 16.0 | 0.00 | 0.00 | 0.00 | 30 | 1007.2 |
| 20260503201510 | 75 | 286 | 5.0 | 16.0 | 0.00 | 0.00 | 0.00 | 30 | 1007.1 |
| 20260503201009 | 74 | 277 | 6.0 | 12.0 | 0.00 | 0.00 | 0.00 | 34 | 1007.3 |
| 20260503200505 | 73 | 258 | 3.0 | 12.0 | 0.00 | 0.00 | 0.00 | 37 | 1007.3 |
| 20260503200014 | 74 | 292 | 6.0 | 10.0 | 0.00 | 0.00 | 0.00 | 35 | 1007.3 |
| 20260503195509 | 74 | 289 | 4.0 | 14.0 | 0.00 | 0.00 | 0.00 | 34 | 1007.3 |
| 20260503195008 | 74 | 236 | 5.0 | 14.0 | 0.00 | 0.00 | 0.00 | 32 | 1007.3 |
| 20260503194534 | 74 | 266 | 4.0 | 11.0 | 0.00 | 0.00 | 0.00 | 35 | 1007.4 |
| 20260503194010 | 73 | 294 | 3.0 | 11.0 | 0.00 | 0.00 | 0.00 | 35 | 1007.5 |
| 20260503193505 | 73 | 267 | 4.0 | 11.0 | 0.00 | 0.00 | 0.00 | 34 | 1007.6 |
| 20260503193005 | 73 | 153 | 3.0 | 11.0 | 0.00 | 0.00 | 0.00 | 36 | 1007.7 |
| 20260503192504 | 73 | 246 | 4.0 | 15.0 | 0.00 | 0.00 | 0.00 | 37 | 1007.7 |
| 20260503192004 | 72 | 279 | 6.0 | 15.0 | 0.00 | 0.00 | 0.00 | 35 | 1007.9 |
| 20260503191506 | 72 | 288 | 4.0 | 11.0 | 0.00 | 0.00 | 0.00 | 36 | 1007.8 |
| 20260503191007 | 72 | 281 | 4.0 | 11.0 | 0.00 | 0.00 | 0.00 | 36 | 1007.8 |
| 20260503190508 | 72 | 227 | 5.0 | 14.0 | 0.00 | 0.00 | 0.00 | 38 | 1008.0 |
| 20260503190012 | 71 | 301 | 4.0 | 14.0 | 0.00 | 0.00 | 0.00 | 37 | 1008.0 |
| 20260503185506 | 71 | 298 | 4.0 | 14.0 | 0.00 | 0.00 | 0.00 | 39 | 1008.1 |
| 20260503185005 | 71 | 278 | 7.0 | 14.0 | 0.00 | 0.00 | 0.00 | 37 | 1008.1 |
| 20260503184523 | 71 | 279 | 6.0 | 14.0 | 0.00 | 0.00 | 0.00 | 37 | 1008.2 |
| 20260503184007 | 70 | 327 | 6.0 | 12.0 | 0.00 | 0.00 | 0.00 | 37 | 1008.2 |
| 20260503183508 | 70 | 281 | 7.0 | 14.0 | 0.00 | 0.00 | 0.00 | 39 | 1008.2 |
| 20260503183020 | 70 | 254 | 4.0 | 14.0 | 0.00 | 0.00 | 0.00 | 40 | 1008.2 |
| 20260503182507 | 70 | 198 | 3.0 | 14.0 | 0.00 | 0.00 | 0.00 | 41 | 1008.4 |
| 20260503182006 | 70 | 184 | 3.0 | 13.0 | 0.00 | 0.00 | 0.00 | 42 | 1008.5 |
| 20260503181506 | 69 | 239 | 5.0 | 13.0 | 0.00 | 0.00 | 0.00 | 40 | 1008.5 |
| 20260503181005 | 69 | 300 | 5.0 | 11.0 | 0.00 | 0.00 | 0.00 | 40 | 1008.6 |
| 20260503180506 | 69 | 213 | 5.0 | 11.0 | 0.00 | 0.00 | 0.00 | 41 | 1008.6 |
| 20260503180010 | 68 | 296 | 3.0 | 17.0 | 0.00 | 0.00 | 0.00 | 41 | 1008.7 |
| 20260503175508 | 68 | 188 | 5.0 | 17.0 | 0.00 | 0.00 | 0.00 | 40 | 1008.9 |
| 20260503175005 | 67 | 272 | 4.0 | 13.0 | 0.00 | 0.00 | 0.00 | 39 | 1008.7 |
| 20260503174514 | 67 | 213 | 6.0 | 12.0 | 0.00 | 0.00 | 0.00 | 41 | 1008.9 |
| 20260503174006 | 67 | 234 | 5.0 | 12.0 | 0.00 | 0.00 | 0.00 | 41 | 1008.9 |
| 20260503173508 | 67 | 220 | 3.0 | 14.0 | 0.00 | 0.00 | 0.00 | 41 | 1008.9 |
| 20260503173021 | 66 | 234 | 5.0 | 14.0 | 0.00 | 0.00 | 0.00 | 40 | 1009.1 |
| 20260503172510 | 66 | 215 | 7.0 | 13.0 | 0.00 | 0.00 | 0.00 | 40 | 1009.2 |
| 20260503172011 | 66 | 352 | 3.0 | 13.0 | 0.00 | 0.00 | 0.00 | 44 | 1009.2 |
| 20260503171522 | 66 | 316 | 4.0 | 12.0 | 0.00 | 0.00 | 0.00 | 44 | 1009.2 |
| 20260503171007 | 66 | 197 | 3.0 | 12.0 | 0.00 | 0.00 | 0.00 | 41 | 1009.2 |
| 20260503170504 | 65 | 205 | 3.0 | 12.0 | 0.00 | 0.00 | 0.00 | 44 | 1009.2 |
| 20260503151007 | 58 | 192 | 4.0 | 12.0 | 0.00 | 0.00 | 0.00 | 49 | 1010.6 |
| 20260503150509 | 57 | 159 | 5.0 | 10.0 | 0.00 | 0.00 | 0.00 | 50 | 1010.7 |
| 20260503131009 | 51 | 151 | 1.0 | 4.0 | 0.00 | 0.00 | 0.00 | 56 | 1012.4 |
| 20260503130508 | 51 | 168 | 2.0 | 5.0 | 0.00 | 0.00 | 0.00 | 56 | 1012.8 |
| 20260503110506 | 50 | 136 | 2.0 | 7.0 | 0.00 | 0.00 | 0.00 | 58 | 1013.2 |